Starlink 2187

operational
NORAD ID: 48562 Int'l Des: 2021-041 Owner: SPXS Country: US Constellation: starlink
LEOCIRCULARSTARLINK_TYPE

Über Starlink 2187

Beschreibung wird geladen...

Live-Position

3D-Globus wird geladen...

Nächste Überflüge

Höhenverlauf

Altitude vs Time

uPlot chart will show altitude changes over time

Zweizeiliger Elementsatz

1 48562U 21041K 25352.14203023 .00004791 00000-0 34018-3 0 9995
2 48562 53.0529 137.7023 0001303 87.2512 272.8626 15.06415827252917
Epoch: 18. Dez. 2025 • Age: 14 hours

Aktueller Status

Höhe 547.0 km
Geschwindigkeit 7.59 km/s
Subsatellitenpunkt 12.28°N, 149.67°E
Startdatum 15. Mai 2021
Alter 4.5 years
Typ internet

Technische Details

Klassifizierung Payload
Masse 260.00 kg
Trockenmasse 248.00 kg
Gesamtmasse 260.00 kg
Länge 0.20 m
Durchmesser 2.80 m
Spannweite 9.00 m
Form Box + pan
Hersteller SPXS
Bus-Typ Starlink
Phasenstatus In Orbit
Besitzer/Staat SPXS/US

Große Konstellationen

Loading constellations...